MDT,Max TemperatureF,Mean TemperatureF,Min TemperatureF,Max Dew PointF,MeanDew PointF,Min DewpointF,Max Humidity, Mean Humidity, Min Humidity, Max Sea Level PressureIn, Mean Sea Level PressureIn, Min Sea Level PressureIn, Max VisibilityMiles, Mean VisibilityMiles, Min VisibilityMiles, Max Wind SpeedMPH, Mean Wind SpeedMPH, Max Gust SpeedMPH,PrecipitationIn, CloudCover, Events, WindDirDegrees
2012-10-1,69,52,35,32,27,20,80,45,15,30.42,30.33,30.27,10,10,10,15,2,22,0.00,0,,220
2012-10-2,73,52,32,29,21,9,81,38,9,30.26,30.18,30.07,10,10,10,17,2,22,0.00,0,,227
2012-10-3,72,52,32,26,17,-6,72,33,7,30.24,30.10,30.02,10,10,10,24,4,36,0.00,1,,241
2012-10-4,63,44,25,23,14,-1,82,40,8,30.27,30.17,30.05,10,10,10,20,2,29,0.00,0,,237
2012-10-5,50,40,30,22,10,-1,46,29,12,30.19,30.12,30.05,10,10,10,14,4,23,0.00,2,,253
2012-10-6,46,34,23,19,10,0,73,42,17,30.27,30.19,30.11,10,10,10,12,2,17,0.00,1,,213
2012-10-7,50,32,15,10,2,-9,72,36,9,30.23,30.18,30.14,10,10,10,12,2,21,0.00,0,,225
2012-10-8,63,40,18,8,-4,-31,58,25,4,30.18,30.09,29.99,10,10,10,18,2,29,0.00,0,,234
2012-10-9,65,44,24,10,3,-6,52,22,6,30.15,30.08,30.05,10,10,10,23,3,40,0.00,0,,251
2012-10-10,69,48,26,22,11,-2,54,27,6,30.23,30.15,30.09,10,10,10,21,2,32,0.00,1,,242
2012-10-11,68,52,37,25,22,17,59,34,14,30.19,30.15,30.12,10,10,10,12,1,20,0.00,2,,293
2012-10-12,59,49,39,45,32,24,93,60,27,30.15,30.10,30.00,10,9,2,16,3,24,0.00,5,,276
2012-10-13,42,38,34,40,37,33,98,91,79,30.30,30.16,30.07,10,8,3,9,1,,0.00,8,,112
2012-10-14,,,,,,,,,,,,,,,,,,,0.00,,,-1
2012-10-15,64,52,40,34,25,18,63,34,18,30.27,30.15,30.09,10,10,10,13,3,21,0.00,1,,261
2012-10-16,64,48,31,42,31,23,93,62,21,30.15,29.97,29.75,10,10,4,24,5,41,0.00,4,,249
2012-10-17,48,40,31,31,9,-5,71,32,11,30.18,30.04,29.91,10,10,10,31,13,44,0.00,1,,258
2012-10-18,53,38,23,16,10,4,69,35,14,30.31,30.25,30.19,10,10,10,15,3,21,0.00,0,,210
2012-10-19,62,43,24,22,16,10,77,41,13,30.26,30.17,30.06,10,10,10,16,2,22,0.00,0,,264
2012-10-20,69,50,30,26,15,0,74,35,7,30.06,29.94,29.84,10,10,10,22,2,29,0.00,2,,239
2012-10-21,68,50,32,22,15,3,65,31,8,29.96,29.91,29.85,10,10,10,18,2,25,0.00,0,,250
2012-10-22,68,51,34,27,21,11,68,36,11,29.95,29.88,29.81,10,10,10,21,4,29,0.00,4,,203
2012-10-23,62,50,39,29,20,8,61,33,12,29.91,29.85,29.80,10,10,10,20,7,32,0.00,3,,197
2012-10-24,40,34,27,32,27,24,100,80,62,30.04,29.91,29.85,10,6,0,8,2,,0.00,8,,215
2012-10-25,36,30,23,27,22,11,98,79,41,30.26,30.13,30.05,10,8,0,14,1,21,0.00,7,,238
2012-10-26,33,27,21,22,18,11,96,72,42,30.42,30.31,30.17,10,8,2,5,0,,0.00,6,,26
2012-10-27,43,33,23,24,20,13,94,61,29,30.22,30.18,30.13,10,10,2,18,2,28,0.00,7,,5
2012-10-28,48,40,32,35,29,24,96,72,43,30.28,30.22,30.18,10,10,1,8,2,,0.00,5,,332
2012-10-29,59,44,30,33,29,22,97,65,25,30.31,30.27,30.22,10,10,10,12,1,16,0.00,2,,270
2012-10-30,60,44,27,29,25,19,94,56,21,30.33,30.28,30.23,10,10,10,15,2,20,0.00,0,,231
2012-10-31,62,44,27,26,22,14,83,50,16,30.34,30.27,30.21,10,10,10,6,0,,0.00,0,,248